Location: Unspecified
(29.9680°N, 0.0000°E)
Time: 18:10:54
(UTC+00:00)

Explorer 7 - Pass Details

Date: 29 June 2019
Orbit: 485 x 680 km, 50.3° (Epoch: 16 July)

Event Time Altitude Azimuth Distance (km) Brightness Sun altitude
Rises 12:38:40 0° 318° (NW) 2,929 10.5 79.6°
Reaches altitude 10° 12:40:59 10° 321° (NW) 2,044 9.9 79.2°
Maximum altitude 12:45:40 61° 42° (NE) 753 8.5 78.4°
Drops below altitude 10° 12:50:30 10° 123° (ESE) 2,103 9.9 77.5°
Sets 12:52:54 0° 127° (SE) 3,020 10.5 77.1°
